> Flugplatz > 
Stacks Image 3
Aktuelle METAR Daten (Memmingen, Friedrichshafen, Laupheim):
2017/09/26 07:20 EDJA 261920Z 10003KT 9999 FEW037 BKN072 12/10 Q1023
2017/09/26 07:20 EDNY 261920Z 07001KT CAVOK 13/12 Q1023
2017/09/26 07:20 ETHL 261920Z 35002KT 9999 FEW042 SCT100 12/09 Q1023 BLU+BLU+ TEMPO BLU
Sicherheits- und Servicehinweise:

Bitte achten Sie beim Anflug auf mögliche Fall­schirm­springer auf der Nordseite des Platzes, kontaktieren Sie zur Sicherheit den Flugleiter auf Leutkirch INFO 122,875.

Zollabfertigung:
für Ein- und Ausflug bei Voranmeldung mindestens 3 Stunden, nur Personenverkehr – keine Warenabfertigung.

Günstig Tanken:
AvGas 100LL · Jet A1l

Aktuelles:

Sommerflugbetrieb:
Der Flugplatz ist Mo – Sa von 09:00 Uhr
bis SS+30/20:00 Uhr (loc)
So. + Feiertags ab 10:30 Uhr
bis SS+30/20:00 Uhr (loc) geöffnet.

Weitere Informationen finden Sie in unserem Newsbereich.

Nutzen Sie unsere Online-Anmeldung zur Zoll- und Passkontrolle.